Time,TemperatureF,DewpointF,PressureIn,WindDirection,WindDirectionDegrees,WindSpeedMPH,WindSpeedGustMPH,Humidity,HourlyPrecipIn,Conditions,Clouds,dailyrainin,SoftwareType,DateUTC
2013-03-11 00:02:00,37.0,9.0,30.03,WNW,292,9.0,9.0,31,0.00,,,0.00,,2013-03-11 08:02:00,
2013-03-11 00:21:00,37.0,9.0,30.06,WNW,290,9.0,9.0,31,0.00,,,0.00,,2013-03-11 08:21:00,
2013-03-11 00:32:00,36.0,8.0,30.06,WNW,286,6.0,6.0,31,0.00,,,0.00,,2013-03-11 08:32:00,
2013-03-11 00:52:00,37.0,9.0,30.06,WNW,290,6.0,6.0,31,0.00,,,0.00,,2013-03-11 08:52:00,
2013-03-11 01:01:00,37.0,8.0,30.06,WNW,297,8.0,11.0,30,0.00,,,0.00,,2013-03-11 09:01:00,
2013-03-11 01:31:00,36.0,8.0,30.06,WNW,292,9.0,0.0,31,0.00,,,0.00,,2013-03-11 09:31:00,
2013-03-11 01:52:00,36.0,8.0,30.06,WNW,297,8.0,10.0,31,0.00,,,0.00,,2013-03-11 09:52:00,
2013-03-11 02:01:00,36.0,8.0,30.06,WNW,290,9.0,10.0,31,0.00,,,0.00,,2013-03-11 10:01:00,
2013-03-11 02:32:00,35.0,8.0,30.06,WNW,291,6.0,0.0,32,0.00,,,0.00,,2013-03-11 10:32:00,
2013-03-11 02:52:00,34.0,8.0,30.09,West,281,5.0,8.0,33,0.00,,,0.00,,2013-03-11 10:52:00,
2013-03-11 03:02:00,35.0,9.0,30.09,WNW,282,5.0,0.0,33,0.00,,,0.00,,2013-03-11 11:02:00,
2013-03-11 03:22:00,35.0,9.0,30.09,WNW,292,6.0,6.0,33,0.00,,,0.00,,2013-03-11 11:22:00,
2013-03-11 03:32:00,35.0,9.0,30.09,WNW,289,6.0,6.0,33,0.00,,,0.00,,2013-03-11 11:32:00,
2013-03-11 03:52:00,34.0,9.0,30.09,WNW,290,6.0,11.0,34,0.00,,,0.00,,2013-03-11 11:52:00,
2013-03-11 04:01:00,34.0,9.0,30.09,WNW,291,6.0,10.0,34,0.00,,,0.00,,2013-03-11 12:01:00,
2013-03-11 04:22:00,34.0,9.0,30.09,WNW,300,5.0,0.0,34,0.00,,,0.00,,2013-03-11 12:22:00,
2013-03-11 04:32:00,34.0,9.0,30.09,NW,305,5.0,5.0,34,0.00,,,0.00,,2013-03-11 12:32:00,
2013-03-11 04:42:00,34.0,9.0,30.09,NW,305,5.0,5.0,34,0.00,,,0.00,,2013-03-11 12:42:00,
2013-03-11 05:01:00,33.0,8.0,30.09,WNW,285,3.0,3.0,35,0.00,,,0.00,,2013-03-11 13:01:00,
2013-03-11 05:22:00,34.0,9.0,30.09,West,279,3.0,5.0,34,0.00,,,0.00,,2013-03-11 13:22:00,
2013-03-11 05:32:00,34.0,8.0,30.09,WNW,291,5.0,0.0,33,0.00,,,0.00,,2013-03-11 13:32:00,
2013-03-11 05:42:00,34.0,8.0,30.09,WNW,291,5.0,0.0,33,0.00,,,0.00,,2013-03-11 13:42:00,
2013-03-11 05:52:00,34.0,8.0,30.09,WNW,294,6.0,8.0,33,0.00,,,0.00,,2013-03-11 13:52:00,
2013-03-11 06:01:00,34.0,8.0,30.09,WNW,291,7.0,8.0,33,0.00,,,0.00,,2013-03-11 14:01:00,
2013-03-11 06:21:00,34.0,8.0,30.09,WNW,291,7.0,7.0,33,0.00,,,0.00,,2013-03-11 14:21:00,
2013-03-11 06:32:00,34.0,8.0,30.06,WNW,291,7.0,7.0,33,0.00,,,0.00,,2013-03-11 14:32:00,
2013-03-11 06:53:00,33.0,7.0,30.06,WNW,284,6.0,0.0,33,0.00,,,0.00,,2013-03-11 14:53:00,
2013-03-11 07:02:00,33.0,8.0,30.06,West,276,4.0,4.0,34,0.00,,,0.00,,2013-03-11 15:02:00,
2013-03-11 07:22:00,34.0,7.0,30.06,WNW,285,4.0,6.0,32,0.00,,,0.00,,2013-03-11 15:22:00,
2013-03-11 07:31:00,34.0,7.0,30.06,WNW,291,5.0,5.0,32,0.00,,,0.00,,2013-03-11 15:31:00,
2013-03-11 07:53:00,35.0,8.0,30.06,WNW,300,5.0,5.0,32,0.00,,,0.00,,2013-03-11 15:53:00,
2013-03-11 08:01:00,34.0,8.0,30.06,WNW,293,6.0,11.0,33,0.00,,,0.00,,2013-03-11 16:01:00,
2013-03-11 08:22:00,34.0,9.0,30.06,WNW,285,7.0,8.0,35,0.00,,,0.00,,2013-03-11 16:22:00,
2013-03-11 08:32:00,34.0,9.0,30.06,WNW,290,6.0,12.0,35,0.00,,,0.00,,2013-03-11 16:32:00,
2013-03-11 08:52:00,34.0,9.0,30.09,WNW,291,5.0,0.0,35,0.00,,,0.00,,2013-03-11 16:52:00,
2013-03-11 09:02:00,34.0,9.0,30.06,WNW,293,5.0,11.0,35,0.00,,,0.00,,2013-03-11 17:02:00,
2013-03-11 09:23:00,35.0,9.0,30.06,WNW,299,5.0,8.0,33,0.00,,,0.00,,2013-03-11 17:23:00,
2013-03-11 09:33:00,35.0,9.0,30.06,NW,304,5.0,6.0,33,0.00,,,0.00,,2013-03-11 17:33:00,
2013-03-11 09:53:00,35.0,9.0,30.06,WNW,302,6.0,0.0,33,0.00,,,0.00,,2013-03-11 17:53:00,
2013-03-11 10:01:00,36.0,9.0,30.06,WNW,301,7.0,8.0,32,0.00,,,0.00,,2013-03-11 18:01:00,
2013-03-11 10:22:00,36.0,9.0,30.06,WNW,298,8.0,12.0,32,0.00,,,0.00,,2013-03-11 18:22:00,
2013-03-11 10:32:00,37.0,9.0,30.06,WNW,298,9.0,9.0,31,0.00,,,0.00,,2013-03-11 18:32:00,
2013-03-11 10:52:00,38.0,10.0,30.06,WNW,299,9.0,9.0,31,0.00,,,0.00,,2013-03-11 18:52:00,
2013-03-11 11:01:00,38.0,10.0,30.06,WNW,296,10.0,0.0,31,0.00,,,0.00,,2013-03-11 19:01:00,
2013-03-11 11:22:00,38.0,10.0,30.06,WNW,295,11.0,11.0,31,0.00,,,0.00,,2013-03-11 19:22:00,
2013-03-11 11:32:00,39.0,11.0,30.09,WNW,293,9.0,13.0,31,0.00,,,0.00,,2013-03-11 19:32:00,
2013-03-11 11:42:00,39.0,11.0,30.09,WNW,293,9.0,13.0,31,0.00,,,0.00,,2013-03-11 19:42:00,
2013-03-11 11:52:00,39.0,11.0,30.09,WNW,295,9.0,0.0,31,0.00,,,0.00,,2013-03-11 19:52:00,
2013-03-11 12:01:00,40.0,12.0,30.09,WNW,303,8.0,0.0,31,0.00,,,0.00,,2013-03-11 20:01:00,
2013-03-11 12:11:00,40.0,12.0,30.09,WNW,303,8.0,0.0,31,0.00,,,0.00,,2013-03-11 20:11:00,
2013-03-11 12:21:00,40.0,12.0,30.09,NW,306,8.0,13.0,31,0.00,,,0.00,,2013-03-11 20:21:00,
2013-03-11 12:32:00,40.0,12.0,30.09,WNW,301,10.0,10.0,31,0.00,,,0.00,,2013-03-11 20:32:00,
2013-03-11 12:42:00,40.0,12.0,30.09,WNW,301,10.0,10.0,31,0.00,,,0.00,,2013-03-11 20:42:00,
2013-03-11 12:52:00,41.0,13.0,30.06,NW,307,10.0,13.0,31,0.00,,,0.00,,2013-03-11 20:52:00,
2013-03-11 13:02:00,41.0,13.0,30.09,NW,310,9.0,12.0,32,0.00,,,0.00,,2013-03-11 21:02:00,
2013-03-11 13:22:00,41.0,13.0,30.09,NW,309,9.0,9.0,32,0.00,,,0.00,,2013-03-11 21:22:00,
2013-03-11 13:31:00,41.0,13.0,30.09,NW,305,9.0,0.0,32,0.00,,,0.00,,2013-03-11 21:31:00,
2013-03-11 13:42:00,41.0,13.0,30.09,NW,305,9.0,0.0,32,0.00,,,0.00,,2013-03-11 21:42:00,
2013-03-11 13:52:00,41.0,13.0,30.09,WNW,302,9.0,9.0,32,0.00,,,0.00,,2013-03-11 21:52:00,
2013-03-11 14:01:00,42.0,14.0,30.09,WNW,298,9.0,9.0,31,0.00,,,0.00,,2013-03-11 22:01:00,
2013-03-11 14:21:00,43.0,14.0,30.06,WNW,292,9.0,13.0,30,0.00,,,0.00,,2013-03-11 22:21:00,
2013-03-11 14:32:00,42.0,13.0,30.06,WNW,292,9.0,11.0,30,0.00,,,0.00,,2013-03-11 22:32:00,
2013-03-11 14:53:00,42.0,12.0,30.06,WNW,297,10.0,0.0,29,0.00,,,0.00,,2013-03-11 22:53:00,
2013-03-11 15:02:00,43.0,13.0,30.06,WNW,296,11.0,11.0,29,0.00,,,0.00,,2013-03-11 23:02:00,
2013-03-11 15:21:00,42.0,12.0,30.06,WNW,294,9.0,9.0,29,0.00,,,0.00,,2013-03-11 23:21:00,
2013-03-11 15:32:00,42.0,12.0,30.06,WNW,290,10.0,14.0,29,0.00,,,0.00,,2013-03-11 23:32:00,
2013-03-11 15:53:00,42.0,13.0,30.06,WNW,288,11.0,11.0,30,0.00,,,0.00,,2013-03-11 23:53:00,
2013-03-11 16:01:00,42.0,13.0,30.06,WNW,288,10.0,0.0,30,0.00,,,0.00,,2013-03-12 00:01:00,
2013-03-11 16:22:00,42.0,13.0,30.06,WNW,286,10.0,0.0,30,0.00,,,0.00,,2013-03-12 00:22:00,
2013-03-11 16:32:00,42.0,12.0,30.06,WNW,285,9.0,12.0,29,0.00,,,0.00,,2013-03-12 00:32:00,
2013-03-11 16:52:00,42.0,12.0,30.03,WNW,288,10.0,13.0,29,0.00,,,0.00,,2013-03-12 00:52:00,
2013-03-11 17:02:00,42.0,12.0,30.03,WNW,288,11.0,0.0,29,0.00,,,0.00,,2013-03-12 01:02:00,
2013-03-11 17:21:00,42.0,12.0,30.03,WNW,289,10.0,10.0,29,0.00,,,0.00,,2013-03-12 01:21:00,
2013-03-11 17:32:00,42.0,12.0,30.03,WNW,291,10.0,12.0,29,0.00,,,0.00,,2013-03-12 01:32:00,
2013-03-11 17:52:00,42.0,12.0,30.03,WNW,289,9.0,9.0,29,0.00,,,0.00,,2013-03-12 01:52:00,
2013-03-11 18:01:00,42.0,12.0,30.03,WNW,291,8.0,11.0,29,0.00,,,0.00,,2013-03-12 02:01:00,
2013-03-11 18:21:00,41.0,11.0,30.03,WNW,286,9.0,13.0,29,0.00,,,0.00,,2013-03-12 02:21:00,
2013-03-11 18:52:00,41.0,11.0,30.03,WNW,292,9.0,0.0,29,0.00,,,0.00,,2013-03-12 02:52:00,
2013-03-11 19:01:00,41.0,11.0,30.03,WNW,296,8.0,8.0,29,0.00,,,0.00,,2013-03-12 03:01:00,
2013-03-11 19:11:00,41.0,11.0,30.03,WNW,296,8.0,8.0,29,0.00,,,0.00,,2013-03-12 03:11:00,
2013-03-11 19:22:00,42.0,12.0,30.03,WNW,299,9.0,11.0,29,0.00,,,0.00,,2013-03-12 03:22:00,
2013-03-11 19:32:00,41.0,10.0,30.03,NW,311,10.0,11.0,28,0.00,,,0.00,,2013-03-12 03:32:00,
2013-03-11 19:52:00,41.0,10.0,30.00,NW,314,11.0,11.0,28,0.00,,,0.00,,2013-03-12 03:52:00,
2013-03-11 20:01:00,40.0,10.0,30.00,NW,308,10.0,15.0,29,0.00,,,0.00,,2013-03-12 04:01:00,
2013-03-11 20:22:00,40.0,10.0,30.00,NW,313,11.0,11.0,29,0.00,,,0.00,,2013-03-12 04:22:00,
2013-03-11 20:32:00,40.0,10.0,30.00,NW,307,13.0,17.0,28,0.00,,,0.00,,2013-03-12 04:32:00,
2013-03-11 20:52:00,40.0,10.0,30.00,NW,315,13.0,16.0,29,0.00,,,0.00,,2013-03-12 04:52:00,
2013-03-11 21:02:00,39.0,9.0,30.00,NNW,328,11.0,11.0,29,0.00,,,0.00,,2013-03-12 05:02:00,
2013-03-11 21:31:00,39.0,9.0,30.00,NNW,330,12.0,13.0,29,0.00,,,0.00,,2013-03-12 05:31:00,
2013-03-11 21:52:00,39.0,9.0,30.00,NW,320,11.0,11.0,29,0.00,,,0.00,,2013-03-12 05:52:00,
2013-03-11 22:02:00,39.0,9.0,30.00,NW,316,12.0,17.0,29,0.00,,,0.00,,2013-03-12 06:02:00,
2013-03-11 22:22:00,39.0,9.0,30.00,NW,321,12.0,12.0,29,0.00,,,0.00,,2013-03-12 06:22:00,
2013-03-11 22:31:00,39.0,9.0,30.00,NNW,327,11.0,11.0,29,0.00,,,0.00,,2013-03-12 06:31:00,
2013-03-11 22:52:00,39.0,9.0,30.00,NNW,327,11.0,11.0,29,0.00,,,0.00,,2013-03-12 06:52:00,
2013-03-11 23:01:00,39.0,9.0,30.00,NW,324,11.0,0.0,29,0.00,,,0.00,,2013-03-12 07:01:00,
2013-03-11 23:21:00,38.0,9.0,30.00,NW,315,11.0,16.0,29,0.00,,,0.00,,2013-03-12 07:21:00,
2013-03-11 23:32:00,38.0,9.0,30.00,NW,321,11.0,11.0,29,0.00,,,0.00,,2013-03-12 07:32:00,
2013-03-11 23:52:00,38.0,9.0,30.00,NNW,329,12.0,16.0,29,0.00,,,0.00,,2013-03-12 07:52:00,